When you browse on this site, cookies collect data to enhance your experience and personalize the content and advertising you see.
Visit our Privacy Policy to learn more. By continuing to use the site, you agree to this use of cookies and data.
  • In Österreich
  • Länderverzeichnis
  • Für 7 Tage
  • Wassertemperatur
  • Satellitenkarten
  • Wetterkarte
  • News
  • Widgets
  • user-avatar
    Anmelden

    Stündliche Wetter Sugar Land

    Heute, 22 Juli, Montag

    Zeit Temperatur Niederschläge Wind Luftdruck Luftfeuchtigkeit
    00:00 +28°C° 0 mm 2 m/S 758 mmHg 89%
    01:00 +28°C° 0.1 mm 2 m/S 758 mmHg 89%
    02:00 +28°C° 0.1 mm 1 m/S 758 mmHg 89%
    03:00 +27°C° 0.1 mm 1 m/S 758 mmHg 89%
    04:00 +27°C° 0.2 mm 1 m/S 758 mmHg 89%
    05:00 +27°C° 0.2 mm 1 m/S 758 mmHg 89%
    06:00 +27°C° 0.2 mm 1 m/S 759 mmHg 89%
    07:00 +29°C° 0.6 mm 1 m/S 759 mmHg 81%
    08:00 +30°C° 0.6 mm 1 m/S 759 mmHg 73%
    09:00 +32°C° 0.6 mm 1 m/S 760 mmHg 65%
    10:00 +32°C° 0 mm 2 m/S 760 mmHg 62%
    11:00 +34°C° 0 mm 3 m/S 759 mmHg 59%
    12:00 +34°C° 0 mm 3 m/S 759 mmHg 57%
    13:00 +35°C° 0 mm 3 m/S 759 mmHg 55%
    14:00 +35°C° 0 mm 3 m/S 758 mmHg 54%
    15:00 +36°C° 0 mm 3 m/S 758 mmHg 53%
    16:00 +35°C° 0 mm 3 m/S 758 mmHg 56%
    17:00 +35°C° 0 mm 3 m/S 757 mmHg 60%
    18:00 +34°C° 0 mm 3 m/S 757 mmHg 63%
    19:00 +33°C° 0 mm 3 m/S 757 mmHg 66%
    20:00 +30°C° 0 mm 3 m/S 757 mmHg 68%
    21:00 +29°C° 0 mm 3 m/S 758 mmHg 71%
    22:00 +28°C° 0.2 mm 3 m/S 758 mmHg 71%
    23:00 +28°C° 0.2 mm 3 m/S 758 mmHg 71%

    Morgen, 23 Juli, Dienstag

    Zeit Temperatur Niederschläge Wind Luftdruck Luftfeuchtigkeit
    00:00 +27°C° 0.2 mm 3 m/S 758 mmHg 71%
    01:00 +27°C° 1.3 mm 3 m/S 758 mmHg 76%
    02:00 +27°C° 1.3 mm 3 m/S 758 mmHg 80%
    03:00 +27°C° 1.3 mm 3 m/S 758 mmHg 85%
    04:00 +27°C° 0.9 mm 3 m/S 758 mmHg 86%
    05:00 +26°C° 0.9 mm 3 m/S 758 mmHg 86%
    06:00 +26°C° 0.9 mm 4 m/S 758 mmHg 86%
    07:00 +27°C° 0 mm 4 m/S 759 mmHg 82%
    08:00 +28°C° 0 mm 4 m/S 759 mmHg 78%
    09:00 +29°C° 0 mm 5 m/S 760 mmHg 74%
    10:00 +30°C° 0 mm 5 m/S 759 mmHg 69%
    11:00 +33°C° 0 mm 5 m/S 759 mmHg 64%
    12:00 +34°C° 0 mm 4 m/S 759 mmHg 59%
    13:00 +34°C° 0 mm 4 m/S 759 mmHg 58%
    14:00 +34°C° 0 mm 4 m/S 758 mmHg 57%
    15:00 +34°C° 0 mm 3 m/S 758 mmHg 57%
    16:00 +34°C° 0.1 mm 4 m/S 758 mmHg 58%
    17:00 +33°C° 0.1 mm 4 m/S 758 mmHg 60%
    18:00 +33°C° 0.1 mm 4 m/S 758 mmHg 62%
    19:00 +32°C° 0 mm 4 m/S 758 mmHg 63%
    20:00 +30°C° 0 mm 3 m/S 758 mmHg 65%
    21:00 +28°C° 0 mm 3 m/S 759 mmHg 66%
    22:00 +28°C° 0 mm 3 m/S 759 mmHg 66%
    23:00 +28°C° 0 mm 3 m/S 759 mmHg 67%

    übermorgen, 24 Juli, Mittwoch

    Zeit Temperatur Niederschläge Wind Luftdruck Luftfeuchtigkeit
    00:00 +27°C° 0 mm 3 m/S 759 mmHg 67%
    01:00 +27°C° 0 mm 3 m/S 759 mmHg 67%
    02:00 +26°C° 0 mm 3 m/S 759 mmHg 66%
    03:00 +26°C° 0 mm 4 m/S 759 mmHg 66%
    04:00 +25°C° 0 mm 4 m/S 760 mmHg 64%
    05:00 +23°C° 0 mm 4 m/S 760 mmHg 62%
    06:00 +24°C° 0 mm 3 m/S 760 mmHg 60%
    07:00 +25°C° 0 mm 4 m/S 760 mmHg 59%
    08:00 +26°C° 0 mm 4 m/S 761 mmHg 58%
    09:00 +27°C° 0 mm 4 m/S 761 mmHg 56%
    10:00 +29°C° 0 mm 4 m/S 761 mmHg 53%
    11:00 +30°C° 0 mm 4 m/S 761 mmHg 49%
    12:00 +33°C° 0 mm 3 m/S 761 mmHg 45%
    13:00 +34°C° 0 mm 3 m/S 760 mmHg 42%
    14:00 +34°C° 0 mm 3 m/S 759 mmHg 38%
    15:00 +35°C° 0 mm 3 m/S 759 mmHg 35%
    16:00 +34°C° 0 mm 3 m/S 759 mmHg 38%
    17:00 +34°C° 0 mm 3 m/S 759 mmHg 41%
    18:00 +32°C° 0 mm 2 m/S 758 mmHg 44%
    19:00 +30°C° 0 mm 2 m/S 759 mmHg 46%
    20:00 +29°C° 0 mm 2 m/S 759 mmHg 49%
    21:00 +27°C° 0 mm 2 m/S 759 mmHg 51%
    22:00 +27°C° 0 mm 2 m/S 759 mmHg 53%
    23:00 +26°C° 0 mm 1 m/S 759 mmHg 55%

    25 Juli, Donnerstag

    Zeit Temperatur Niederschläge Wind Luftdruck Luftfeuchtigkeit
    00:00 +26°C° 0 mm 1 m/S 759 mmHg 56%
    01:00 +25°C° 0 mm 1 m/S 759 mmHg 59%
    02:00 +25°C° 0 mm 1 m/S 759 mmHg 61%
    03:00 +25°C° 0 mm 2 m/S 759 mmHg 64%
    04:00 +24°C° 0 mm 2 m/S 760 mmHg 65%
    05:00 +24°C° 0 mm 2 m/S 760 mmHg 66%
    06:00 +24°C° 0 mm 2 m/S 760 mmHg 67%
    07:00 +25°C° 0 mm 2 m/S 760 mmHg 62%
    08:00 +27°C° 0 mm 2 m/S 760 mmHg 57%
    09:00 +29°C° 0 mm 3 m/S 760 mmHg 52%
    10:00 +30°C° 0 mm 3 m/S 760 mmHg 46%
    11:00 +31°C° 0 mm 2 m/S 760 mmHg 40%
    12:00 +34°C° 0 mm 2 m/S 760 mmHg 34%
    13:00 +34°C° 0 mm 2 m/S 760 mmHg 34%
    14:00 +35°C° 0 mm 3 m/S 759 mmHg 34%
    15:00 +35°C° 0 mm 3 m/S 759 mmHg 34%
    16:00 +34°C° 0 mm 3 m/S 759 mmHg 41%
    17:00 +33°C° 0 mm 3 m/S 759 mmHg 49%
    18:00 +32°C° 0 mm 4 m/S 758 mmHg 56%
    19:00 +29°C° 0 mm 3 m/S 759 mmHg 62%
    20:00 +28°C° 0 mm 3 m/S 759 mmHg 67%
    21:00 +26°C° 0 mm 2 m/S 759 mmHg 72%
    22:00 +26°C° 0 mm 2 m/S 760 mmHg 73%
    23:00 +26°C° 0 mm 2 m/S 760 mmHg 74%

    26 Juli, Freitag

    Zeit Temperatur Niederschläge Wind Luftdruck Luftfeuchtigkeit
    00:00 +26°C° 0 mm 1 m/S 760 mmHg 75%
    01:00 +26°C° 0 mm 1 m/S 760 mmHg 75%
    02:00 +26°C° 0 mm 1 m/S 759 mmHg 75%
    03:00 +26°C° 0 mm 1 m/S 759 mmHg 75%
    04:00 +26°C° 0 mm 1 m/S 760 mmHg 75%
    05:00 +26°C° 0 mm 2 m/S 760 mmHg 75%
    06:00 +26°C° 0 mm 2 m/S 760 mmHg 75%
    07:00 +27°C° 0 mm 2 m/S 760 mmHg 70%
    08:00 +29°C° 0 mm 3 m/S 761 mmHg 66%
    09:00 +30°C° 0 mm 3 m/S 761 mmHg 61%
    10:00 +33°C° 0 mm 3 m/S 761 mmHg 57%
    11:00 +34°C° 0 mm 3 m/S 761 mmHg 54%
    12:00 +35°C° 0 mm 3 m/S 761 mmHg 50%
    13:00 +35°C° 0.3 mm 3 m/S 760 mmHg 52%
    14:00 +35°C° 0.3 mm 4 m/S 760 mmHg 54%
    15:00 +35°C° 0.3 mm 4 m/S 759 mmHg 56%
    16:00 +34°C° 0.4 mm 4 m/S 759 mmHg 59%
    17:00 +33°C° 0.4 mm 4 m/S 759 mmHg 62%
    18:00 +32°C° 0.4 mm 4 m/S 759 mmHg 66%
    19:00 +30°C° 0.1 mm 4 m/S 760 mmHg 70%
    20:00 +29°C° 0.1 mm 3 m/S 760 mmHg 75%
    21:00 +28°C° 0.1 mm 3 m/S 761 mmHg 80%
    22:00 +28°C° 0 mm 3 m/S 761 mmHg 81%
    23:00 +27°C° 0 mm 2 m/S 761 mmHg 82%

    27 Juli, Samstag

    Zeit Temperatur Niederschläge Wind Luftdruck Luftfeuchtigkeit
    00:00 +27°C° 0 mm 2 m/S 761 mmHg 84%
    01:00 +27°C° 0 mm 1 m/S 761 mmHg 84%
    02:00 +27°C° 0 mm 1 m/S 761 mmHg 85%
    03:00 +25°C° 0 mm 0 m/S 760 mmHg 86%
    04:00 +27°C° 0.2 mm 1 m/S 761 mmHg 87%
    05:00 +27°C° 0.2 mm 1 m/S 761 mmHg 87%
    06:00 +27°C° 0.2 mm 1 m/S 761 mmHg 87%
    07:00 +28°C° 0.7 mm 2 m/S 762 mmHg 79%
    08:00 +30°C° 0.7 mm 3 m/S 762 mmHg 71%
    09:00 +33°C° 0.7 mm 4 m/S 762 mmHg 62%
    10:00 +34°C° 0.1 mm 4 m/S 762 mmHg 60%
    11:00 +34°C° 0.1 mm 4 m/S 762 mmHg 58%
    12:00 +35°C° 0.1 mm 4 m/S 762 mmHg 55%
    13:00 +35°C° 0.1 mm 4 m/S 762 mmHg 55%
    14:00 +36°C° 0.1 mm 4 m/S 762 mmHg 54%
    15:00 +36°C° 0.1 mm 4 m/S 761 mmHg 53%
    16:00 +35°C° 0 mm 4 m/S 761 mmHg 56%
    17:00 +34°C° 0 mm 4 m/S 761 mmHg 60%
    18:00 +34°C° 0 mm 4 m/S 761 mmHg 63%
    19:00 +32°C° 0 mm 4 m/S 761 mmHg 69%
    20:00 +30°C° 0 mm 3 m/S 762 mmHg 74%
    21:00 +28°C° 0 mm 3 m/S 762 mmHg 80%
    22:00 +28°C° 0 mm 2 m/S 762 mmHg 82%
    23:00 +28°C° 0 mm 2 m/S 762 mmHg 84%
    Mehr zeigen